IRIDIUM 138

Last updated on Fri Sep 11 2026 00:03:06 GMT+0000 (Coordinated Universal Time)

1 43071U 17083B 26253.50383281 .00000059 00000+0 14142-4 0 9991 2 43071 86.3936 286.0585 0002390 93.4603 266.6866 14.34218089456369
UTC large
Height (km)
Speed (km/s)
/
Latitude / Longitude
Inclination (degrees)
Orbital Period (minutes)
Azimuth
Elevation
Range (km)
Doppler Factor

Next 0 passes for location: London (51.5072 / 0.1276)

No passes found over London.
IRIDIUM 138